Regional Weather Roundup
Issued by NWS

Current Version | Previous Version | Text Only | Print | Product List | Glossary On
Versions: 1 2 3 4 5 6 7 8 9 10 11 12 13 14 15 16 17 18 19 20 21 22 23 24 25 26 27 28 29 30 31 32 33 34 35 36 37 38 39 40 41 42 43 44 45 46 47 48 49 50
632
ASUS43 KLOT 051712
RWRIL

ILLINOIS REGIONAL WEATHER ROUNDUP
NATIONAL WEATHER SERVICE CHICAGO/ROMEOVILLE IL
1100 AM CST MON DEC 05 2016

NOTE: "FAIR" INDICATES FEW OR NO CLOUDS BELOW 12,000 FEET WITH NO
SIGNIFICANT WEATHER AND/OR OBSTRUCTIONS TO VISIBILITY.

* THESE STATIONS ARE NOT UNDER NWS QUALITY CONTROL. THEY ALSO MAY NOT
  REPORT WEATHER SUCH AS PRECIPITATION OR FOG.

ILZ001-002-007-009-015-016-024-051800-
NORTHWEST ILLINOIS

CITY           SKY/WX    TMP DP  RH WIND       PRES   REMARKS
MOLINE         CLOUDY    34  31  88 S8        29.98S FOG     WCI  27
STERLING*      FOG       33  32  96 VRB6      30.01S VSB 3/4 WCI  28
SAVANNA*       CLOUDY    32  31  98 S12       29.98S FOG     WCI  23
$$

ILZ003-004-008-010-011-017-018-051800-
NORTH CENTRAL ILLINOIS

CITY           SKY/WX    TMP DP  RH WIND       PRES   REMARKS
ROCKFORD       SNOW      31  30  96 S16       30.02S VSB 1/2 WCI  20
FREEPORT*      FOG       30  29  98 S14       30.00S VSB 1/2 WCI  19
ROCHELLE*      FOG       31  30  99 S14       30.01F VSB 1/2 WCI  20
DE KALB*       FOG       31  30  99 S14       30.01F VSB 1/4 WCI  20
$$

ILZ005-006-012>014-019>023-051800-
NORTHEAST ILLINOIS

CITY           SKY/WX    TMP DP  RH WIND       PRES   REMARKS
CHICAGO-OHARE  CLOUDY    32  31  96 S10       30.03S FOG     WCI  24
CHICAGO-MIDWAY CLOUDY    33  29  85 S9        30.04F WCI  25
AURORA         CLOUDY    33  30  88 S14       30.03F FOG     WCI  23
LANSING*       CLOUDY    32  32 100 S10       30.06F WCI  24
JOLIET*        CLOUDY    33  32  96 S10       30.06S WCI  25
WAUKEGAN       CLOUDY    33  31  92 S10       30.00F FOG     WCI  25
DUPAGE AIRPORT FOG       32  30  92 S13       30.02F VSB 1   WCI  22
KANKAKEE*      CLOUDY    32  31  94 S10       30.08S WCI  24
WHEELING       CLOUDY    32  31  96 S9        30.04S FOG     WCI  24
MORRIS*        CLOUDY    32  31  94 S10       30.04F FOG     WCI  24
ROMEOVILLE*    CLOUDY    32  32 100 S13       30.04F FOG     WCI  22
NORTHERLY ISL    N/A     33  31  92 S13         N/A  WCI  24
$$

LMZ740>746-051800-
SOUTHERN LAKE MICHIGAN

STATION/POSITION SKY/WX   TEMP    WIND        PRES    VSBY  WAVE
                          AIR SEA DIR/SP/G                  HT/PER
                          (F)     (DEG/KT/KT) (MB)    (MI)  (FT/S)
HARRISON CRIB              34     200/ 18/ 19   N/A
BURNHAM HARBOR             33     200/  8/ 15   N/A
CALUMET HARBOR             33     190/  8/ 13 1017.0F
BURNS HARBOR               33     190/ 12/ 17 1018.6R
$$

ILZ025>027-034>036-040-047-049-050-058-095>099-051800-
WEST-CENTRAL ILLINOIS

CITY           SKY/WX    TMP DP  RH WIND       PRES   REMARKS
QUINCY         FOG       34  34 100 S9        29.99F VSB 1/4 WCI  27
GALESBURG*     CLOUDY    33  33 100 S10G16    29.98F FOG     WCI  25
MACOMB*        FOG       34  34 100 S13       30.02F VSB 1/4 WCI  25
JACKSONVILLE*  CLOUDY    37  35  89 S9        30.02F WCI  31
PITTSFIELD*    CLOUDY    37  37 100 S6        30.01F FOG     WCI  32
$$

ILZ028>032-037-038-041>044-048-051>054-059>061-051800-
CENTRAL ILLINOIS

CITY           SKY/WX    TMP DP  RH WIND       PRES   REMARKS
PONTIAC        CLOUDY    33  33 100 S12       30.06S FOG     WCI  24
BLOOMINGTON    FOG       32  31  96 S15       30.05S VSB 3/4 WCI  22
DECATUR        CLOUDY    35  32  88 S9        30.06F WCI  28
PEORIA         CLOUDY    36  34  92 S12       30.03F WCI  28
LACON*         CLOUDY    33  32  96 S9        30.02F WCI  26
LINCOLN*       CLOUDY    36  35  96 S8        30.05F WCI  30
SPRINGFIELD    CLOUDY    39  35  86 S12       30.04F WCI  32
TAYLORVILLE    CLOUDY    36  34  92 SE8       30.05F WCI  30
$$

ILZ033-039-045-046-055>057-062-063-051800-
EAST-CENTRAL ILLINOIS

CITY           SKY/WX    TMP DP  RH WIND       PRES   REMARKS
CHAMPAIGN      CLOUDY    35  32  88 S10       30.08S WCI  27
RANTOUL*       CLOUDY    35  33  92 S13       30.08S WCI  26
MATTOON        CLOUDY    35  31  85 S9        30.06F WCI  28
PARIS*         CLOUDY    36  33  88 SE8       30.10F WCI  29
$$

ILZ079-100>102-051800-
SOUTHWEST ILLINOIS

CITY           SKY/WX    TMP DP  RH WIND       PRES   REMARKS
ALTON          CLOUDY    39  34  81 E7        30.04F WCI  34
BELLEVILLE     PTSUNNY   41  37  87 E8        30.03F
CAHOKIA*       CLOUDY    41  35  79 E5        30.03F
SPARTA*        PTSUNNY   40  35  82 E7        30.05F
$$

ILZ064>066-069>071-074>076-080>082-084>086-088>090-092>094-051800-
SOUTH-CENTRAL ILLINOIS

CITY           SKY/WX    TMP DP  RH WIND       PRES   REMARKS
CARBONDALE     CLOUDY    40  36  86 E9        30.06S
CAIRO*         PTSUNNY   41  36  82 E8        30.05F
EFFINGHAM*     CLOUDY    37  35  94 E6        30.07F WCI  32
MARION         CLOUDY    41  37  87 SE14      30.07S
CENTRALIA*     CLOUDY    39  35  86 E7        30.05F WCI  34
SALEM*         CLOUDY    39  34  81 SE7       30.06F WCI  34
METROPOLIS*    CLOUDY    42  36  79 E5        30.06F
$$

ILZ067-068-072-073-078-083-087-091-051800-
SOUTHEAST ILLINOIS

CITY           SKY/WX    TMP DP  RH WIND       PRES   REMARKS
LAWRENCEVILLE  CLOUDY    39  33  79 E9        30.08  WCI  33
FLORA*         CLOUDY    39  35  84 E7        30.08F WCI  34
FAIRFIELD*     CLOUDY    38  34  85 E7        30.06F WCI  33
HARRISBURG*    CLOUDY    38  35  87 E9        30.08S WCI  32
ROBINSON*      CLOUDY    36  32  86 SE5       30.10F WCI  32
CARMI*         CLOUDY    39  35  87 E10       30.07F WCI  32
$$

ABBREVIATIONS USED IN REMARKS
   TC - TEMPERATURE IN CELSIUS
  WCI - WIND CHILL INDEX
   HX - HEAT INDEX
  VSB - VISIBILITY
$$





USA.gov is the U.S. government's official web portal to all federal, state and local government web resources and services.